FLOCK 2K-23 (42859 NORAD) Tracking and Keplerian Element Data

This shows tracking and keplerian element data for the satellite.

Feedback or suggestion? Click here.




ElementValue
Catalog42859
NameFLOCK 2K-23
Epoch Orbit3279
Epoch Day45.4572423
Epoch Year2018
RAAN308.2361
Inclination96.9928
Eccentricity0.0010004
Argument of Perigee187.1534
Mean Anonmoly172.957
Mean Motion15.35632641
Decay Rate7.365E-05
L11 42859U 17042AL 18045.45724230 .00007365 00000-0 21443-3 0 9995
L22 42859 96.9928 308.2361 0010004 187.1534 172.9570 15.35632641 32798

Live tracking and technical data element details for FLOCK 2K-23 (NORAD 42859). FLOCK 2K-23 can be tracked NOW for your location showing map with azimuth and elevation plus other details from your city location.

Track the satellite on the map from your city or location and see movement details for azimuth, elevation, latitude, longitude, range, height, and movement on the map or in text.







IsCatalogInMostPopularTable: catalog: 42859, numindb: 139
Update: records affected: 1



GetName: 42859 FLOCK 2K-23

Hit Count: updated at: Sat, 15 Dec 2018 19:42:03 GMT